sat.trackr.live / text

‹ back to catalog

ONEWEB-0663

NORAD 55823 · 2023-029AD

PAYLOAD ACTIVE UNKNOWN

§ Identity

Operator
Country
UK
Launch date
2023-03-09
Launch site
AFETR
Launch vehicle
Mass (kg)
RCS (m²)

Purposes: comms

External: N2YO · Heavens-Above · Gunter

§ Orbital elements

Epoch: 2026-05-25T03:12:55.378656Z

Period
109.02 min
Inclination
87.9178°
Eccentricity
0.0001567
Mean motion
13.20867351 rev/d
Perigee alt
1,180.2 km
Apogee alt
1,182.6 km
Semi-major
7,559.5 km
B*
-3.2252e-5
RAAN
279.0978°
Arg perigee
88.1048°
Mean anomaly
272.0265°
Rev number
15,810

§ Raw data

ONEWEB-06631 55823U 23029AD  26145.13397429  .00000000  00000+0 -32252-4 0  99932 55823  87.9178 279.0978 0001567  88.1048 272.0265 13.20867351158100

JSON: /api/v1/satellites/55823 · /tle

For live sub-satellite position, see the globe view (requires WebGL).

§ Visibility from observer

Set your observer location to see the next 7 days of passes ≥ 10°. The values pass through the URL so the page stays shareable.

No JS? Fill the form by hand. The geolocation button needs JavaScript.